Regional Weather Roundup
Issued by NWS

Home | Current Version | Previous Version | Graphics & Text | Print | Product List | Glossary On
Versions: 1 2 3 4 5 6 7 8 9 10 11 12 13 14 15 16 17 18 19 20 21 22 23 24 25 26 27 28 29 30 31 32 33 34 35 36 37 38 39 40 41 42 43 44 45 46 47 48 49 50
000
ASUS43 KIND 141009
RWRIN

WEATHER ROUNDUP FOR INDIANA
NATIONAL WEATHER SERVICE INDIANAPOLIS IN
500 AM EST SUN FEB 14 2016

NOTE: "FAIR" INDICATES FEW OR NO CLOUDS BELOW 12,000 FEET WITH NO
SIGNIFICANT WEATHER AND/OR OBSTRUCTIONS TO VISIBILITY.

* - STATION DOES NOT REPORT WEATHER SUCH AS PRECIPITATION OR FOG.

+ - STATION NOT QUALITY CONTROLLED BY THE NATIONAL WEATHER SERVICE.
    USE DATA WITH CAUTION...ESPECIALLY DEWPOINT AND RELATIVE
    HUMIDITY OBSERVATIONS.

INZ001>003-010>013-019-020-141100-
NORTHWEST INDIANA

CITY           SKY/WX    TMP DP  RH WIND       PRES   REMARKS
KNOX *+        CLOUDY     5   0  78 S3        30.44S
LA PORTE +     PTCLDY     1  -3  86 CALM      30.42S
MICHIGAN CITY+ CLOUDY     9   1  72 CALM      30.44R
MONTICELLO +   CLOUDY    12   0  58 SE6       30.44S WCI   3
RENSSELAER +   CLOUDY    14   0  52 SE10      30.43F WCI   1
VALPARAISO     CLOUDY     9   2  73 S6        30.42F WCI  -1

$$

LMZ046-743>745-141100-
SOUTHERN LAKE MICHIGAN

STATION/POSITION TIME  TEMP    WIND        PRES    WAVE
                       AIR SEA DIR/SP/G            HT
                 (UTC) (F)     (DEG/KT/KT) (MB)    (FT)
BURNS HARBOR     0900   11     150/  9/ 13 1031.2F
MICHIGAN CITY    0900    9     130/  7/  8   N/A

$$

INZ004-005-014>016-021>024-141100-
NORTH CENTRAL INDIANA

CITY           SKY/WX    TMP DP  RH WIND       PRES   REMARKS
GOSHEN         CLOUDY     5   0  79 E6        30.42F WCI  -6
LOGANSPORT +   CLOUDY    12   1  62 SE7       30.45S WCI   2
PERU/GRISSOM   CLOUDY    10   3  73 SE6       30.41S WCI   1
ROCHESTER +    CLOUDY     5  -4  66 CALM      30.43F
SOUTH BEND     CLOUDY     2  -1  88 CALM      30.43F
WARSAW +       PTCLDY     1  -2  85 CALM      30.42F

$$

INZ006>009-017-018-025>027-141100-
NORTHEAST INDIANA

CITY           SKY/WX    TMP DP  RH WIND       PRES   REMARKS
ANGOLA *+      CLOUDY     9   3  78 E6        30.41F WCI  -1
AUBURN +       PTCLDY     9   3  78 E3        30.44F
FORT WAYNE     CLOUDY     4   0  83 E5        30.44F WCI  -5
HUNTINGTON +   CLOUDY     2  -4  75 CALM      30.43S

$$

INZ028-029-035-036-043>045-051>053-141100-
WEST CENTRAL INDIANA

CITY           SKY/WX    TMP DP  RH WIND       PRES   REMARKS
CRAWFORDSVL +  CLOUDY    13  -1  54 SE9       30.42S WCI   1
GREENCASTLE +  CLOUDY    16  -2  45 E9        30.41F WCI   4
LAFAYETTE      CLOUDY    13   2  61 E10       30.43F WCI   0
TERRE HAUTE    CLOUDY    17   3  54 SE9       30.42F WCI   6

$$

INZ030>032-037>040-046>048-054>057-064-065-141100-
CENTRAL INDIANA

CITY           SKY/WX    TMP DP  RH WIND       PRES   REMARKS
FRANKFORT +    CLOUDY    13  -3  48 E13       30.43F WCI  -1
GREENWOOD *+   CLOUDY    14   5  67 SE7       30.44S WCI   4
INDIANAPOLIS   CLOUDY    14   1  56 SE8       30.41F WCI   3
-EAGLE CREEK   CLOUDY    14   1  56 E10       30.42S WCI   1
KOKOMO *+      CLOUDY    10   1  67 SE8       30.44R WCI  -1
MARION +       CLOUDY     8  -4  57 S3        30.45R
MT COMFORT *+  CLOUDY    12   3  67 E8        30.44R WCI   1
SHELBYVILLE    CLOUDY    14   3  61 SE10      30.44S WCI   1
ZIONSVILLE +   CLOUDY    12   2  64 E8        30.42F WCI   0

$$

INZ033-034-041-042-049-050-058-059-141100-
EAST CENTRAL INDIANA

CITY           SKY/WX    TMP DP  RH WIND       PRES   REMARKS
MUNCIE         CLOUDY    10   1  67 S5        30.43S WCI   2

$$

INZ060-061-067>069-081>083-085>088-141100-
SOUTHWEST INDIANA

CITY           SKY/WX    TMP DP  RH WIND       PRES   REMARKS
EVANSVILLE     CLOUDY    24   5  44 E7        30.41S WCI  16
HUNTINGBURG *+ CLOUDY    19   7  58 E9        30.41R WCI   9
WASHINGTON +   FLURRIES  19   6  57 E10       30.42S WCI   8

$$

INZ062-063-066-070>080-084-089>092-141100-
SOUTH CENTRAL AND SOUTHEAST INDIANA

CITY           SKY/WX    TMP DP  RH WIND       PRES   REMARKS
BEDFORD +      CLOUDY    18   7  62 E6        30.42F WCI   9
BLOOMINGTON    CLOUDY    16   2  54 E10       30.40F WCI   4
MADISON *+     CLOUDY    18   5  57 E7        30.45F WCI   8
NORTH VERNON + CLOUDY    16   3  57 CALM      30.44F
SEYMOUR +      CLOUDY    19   3  49 E7        30.44F WCI  10

$$




USA.gov is the U.S. government's official web portal to all federal, state and local government web resources and services.